Location: Nairn
(57.5833°N, 3.8667°W)
Time: 01:46:37
(UTC+00:00)

NPP - Pass Details

Date: 07 August 2020
Orbit: 826 x 828 km, 98.7° (Epoch: 19 September)

Event Time Altitude Azimuth Distance (km) Brightness Sun altitude
Rises 02:05:57 0° 18° (NNE) 3,383 8.8 -13.0°
Reaches altitude 10° 02:08:20 10° 21° (NNE) 2,445 7.6 -12.8°
Maximum altitude 02:13:44 66° 104° (ESE) 906 3.9 -12.5°
Enters shadow 02:18:22 14° 185° (S) 2,155 5.3 -12.2°
